Location: Corsier
(46.2637°N, 6.2238°E)
Time: 22:27:00
(UTC+00:00)

CZ-2C R/B - Pass Details

Date: 07 June 2020
Orbit: 503 x 567 km, 97.7° (Epoch: 08 July)

Event Time Altitude Azimuth Distance (km) Brightness Sun altitude
Rises 02:58:16 0° 14° (NNE) 2,637 7.4 -6.9°
Reaches altitude 10° 03:00:21 10° 16° (NNE) 1,754 6.4 -6.7°
Maximum altitude 03:04:08 77° 103° (ESE) 542 2.9 -6.2°
Drops below altitude 10° 03:07:57 10° 189° (S) 1,773 5.0 -5.7°
Enters shadow 03:09:52 - 191° (S) 2,580 5.8 -5.5°
